STARLINK-1882, 46784

Orbit data source: Space-Track

STARLINK-1882, 46784 is a payload satellite owned by SpaceX/Seattle (US) in LEO that was launched on Sat, 24 Oct 2020 UTC via an FALCON 9 launch vehicle from the Air Force Eastern Test Range (AFETR). Payload-class satellites include a variety of spacecraft equipped with specific instruments for various scientific and technological missions. These include communications satellites like Starlink; space stations such as the ISS; scientific satellites like the Hubble; Earth observation satellites from companies like Planet Labs, Umbra, and HawkEye 360; GPS; miniature CubeSats for education and research; and military/defense satellites.

Loading next visibility...
Identifier
46784, 2020-074AX
Orbit
LEO
Country
Flag of USUS
Related business
Manufacturer
SpaceX/Seattle
Mission
Operational Commercial Communications
Bus & Motor
STARLINK, Unknown motor
Mass
260 kg wet, ~248 kg dry
Launch date (UTC)
2020-10-24 (5 years ago)
Launch vehicle
FALCON 9
Launch site
Air Force Eastern Test Range (AFETR)
Object type
Payload
Rocket body
Debris
Shape & HBR
Box + 1 Pan, 10.1 m
Radar Cross Section
13.562 m², Large (>1 m²)

Expand to show TLE details & history
Last TLE update: 5 hours ago

TLE from 5 hours ago
0 STARLINK-1882
1 46784U 20074AX  25293.66671296  .00076741  00000-0  29311-2 0  9999
2 46784  53.0600 218.9882 0001514 108.7849 258.6741 15.25966776  5801
Epoch: 2025-10-20T16:00Z
TLE epoch observation values (Epoch: 2025-10-20T16:00:03.999Z)
Latitude
5.89899°
Longitude
-45.9631°
Altitude
488.402 km
Speed
7.622 km/s
True Right ascension
14h 53m 40s
True Declination
5° 51' 45"
Sunlit
Object was in daylight at epoch
Visualization orbit readout
Latitude
Unknown
Longitude
Unknown
Altitude
Unknown
Speed
Unknown
Apparent Right ascension
Unknown
Apparent Declination
Unknown
Sunlit
N/A
Visualization observer readout
Local Sidereal Time
16:07:25
Azimuth
Unknown
Elevation
Unknown
Doppler factor
Unknown
Orbital elements
Apogee altitude
489.196 km
Perigee altitude
487.116 km
Semi-major axis
6,866.293 km
Eccentricity
0.00015
Inclination
53.06°
RAAN
218.9882°
Arg. of periapsis
108.7849°
True anomaly
258.65709°
Mean anomaly
258.6741°
Eccentric anomaly
258.66559°
Mean motion
3.81469 °/min
Orbital period
94.37 mins
BSTAR
0.0029311
Loading maneuver chart data...
Computing Atmospheric mass density...
Loading historical data...
Loading historical data...
Loading historical data...
Loading historical data...
Loading historical data...
Loading historical data...
Loading historical data...

Documentation

Showing up to 5 results
|